OK,60,50,1034,60,2014-10-01T01:40:00,0,28072804,195711
OK,60,50,1034,60,2014-10-01T01:45:00,0,28073251,195711
OK,60,50,1034,60,2014-10-01T01:50:00,0,28073699,195711
OK,60,50,1034,60,2014-10-01T01:55:00,0,28074017,195711
OK,60,50,1034,60,2014-10-01T02:05:00,0,28074906,195711
OK,60,50,1034,60,2014-10-01T02:10:00,0,28075355,195711
OK,60,50,1034,60,2014-10-01T02:15:00,0,28075804,195711
OK,60,50,1034,60,2014-10-01T02:20:00,0,28076187,195711
OK,60,50,1034,60,2014-10-01T02:25:00,0,28076636,195711
OK,60,50,1034,60,2014-10-01T02:30:00,0,28077085,195711
OK,60,50,1034,60,2014-10-01T02:35:00,0,28077534,195711
OK,60,50,1034,60,2014-10-01T02:40:00,0,28077937,195711
OK,30,101,1034,30,2014-10-01T02:45:00,1,28078386,195711
OK,30,101,1034,30,2014-10-01T02:50:00,1,28078831,195711
OK,57,53,1034,57,2014-10-01T02:55:00,1,28079279,195711
OK,57,53,1034,57,2014-10-01T03:00:00,1,28079722,195711
OK,57,53,1034,57,2014-10-01T03:05:00,0,28080171,195711
OK,57,53,1034,57,2014-10-01T03:10:00,0,28080505,195711
OK,57,53,1034,57,2014-10-01T03:15:00,0,28080954,195711
OK,22,138,1034,22,2014-10-01T03:20:00,2,28081403,195711
OK,22,138,1034,22,2014-10-01T03:25:00,0,28081850,195711
OK,22,138,1034,22,2014-10-01T03:30:00,0,28082299,195711
OK,47,65,1034,47,2014-10-01T03:35:00,2,28082732,195711
OK,43,71,1034,43,2014-10-01T03:40:00,3,28083164,195711
OK,38,80,1034,38,2014-10-01T03:45:00,1,28083613,195711
OK,38,80,1034,38,2014-10-01T03:50:00,0,28084062,195711
OK,38,80,1034,38,2014-10-01T03:55:00,0,28084503,195711
OK,38,80,1034,38,2014-10-01T04:00:00,0,28084928,195711
OK,38,80,1034,38,2014-10-01T04:05:00,0,28085377,195711
OK,38,80,1034,38,2014-10-01T04:10:00,0,28085822,195711
OK,36,84,1034,36,2014-10-01T04:15:00,2,28086271,195711
OK,36,84,1034,36,2014-10-01T04:20:00,2,28086713,195711
OK,66,46,1034,66,2014-10-01T04:25:00,3,28087162,195711
OK,65,47,1034,65,2014-10-01T04:30:00,4,28087607,195711
OK,53,57,1034,53,2014-10-01T04:35:00,1,28088056,195711
OK,47,65,1034,47,2014-10-01T04:40:00,3,28088480,195711
OK,44,69,1034,44,2014-10-01T04:45:00,4,28088929,195711
OK,64,47,1034,64,2014-10-01T04:50:00,2,28089359,195711
OK,93,32,1034,93,2014-10-01T04:55:00,1,28089808,195711
OK,63,48,1034,63,2014-10-01T05:00:00,3,28090257,195711
OK,63,48,1034,63,2014-10-01T05:05:00,3,28090601,195711
OK,39,78,1034,39,2014-10-01T05:10:00,0,28091050,195711
OK,113,27,1034,113,2014-10-01T05:15:00,2,28091499,195711
OK,74,41,1034,74,2014-10-01T05:20:00,3,28091916,195711
OK,52,58,1034,52,2014-10-01T05:25:00,3,28092365,195711
OK,54,56,1034,54,2014-10-01T05:30:00,4,28092809,195711
OK,56,54,1034,56,2014-10-01T05:35:00,5,28093250,195711
OK,53,57,1034,53,2014-10-01T05:40:00,4,28093681,195711
OK,52,58,1034,52,2014-10-01T05:45:00,3,28094130,195711
OK,68,44,1034,68,2014-10-01T05:50:00,3,28094541,195711
OK,64,47,1034,64,2014-10-01T05:55:00,4,28094986,195711
OK,65,47,1034,65,2014-10-01T06:00:00,4,28095433,195711
OK,69,44,1034,69,2014-10-01T06:05:00,1,28095882,195711
OK,70,43,1034,70,2014-10-01T06:10:00,2,28096295,195711
OK,89,34,1034,89,2014-10-01T06:15:00,2,28096744,195711
OK,90,33,1034,90,2014-10-01T06:20:00,1,28097178,195711
OK,73,41,1034,73,2014-10-01T06:25:00,3,28097627,195711
OK,98,31,1034,98,2014-10-01T06:30:00,5,28098076,195711
OK,95,32,1034,95,2014-10-01T06:35:00,5,28098513,195711
OK,64,47,1034,64,2014-10-01T06:40:00,2,28098957,195711
OK,54,56,1034,54,2014-10-01T06:45:00,1,28099405,195711
OK,54,56,1034,54,2014-10-01T06:50:00,0,28099748,195711
OK,63,48,1034,63,2014-10-01T06:55:00,3,28100197,195711
OK,70,43,1034,70,2014-10-01T07:00:00,6,28100504,195711
OK,77,39,1034,77,2014-10-01T07:10:00,1,28101324,195711
OK,77,39,1034,77,2014-10-01T07:15:00,0,28101773,195711
OK,98,31,1034,98,2014-10-01T07:20:00,3,28102209,195711
OK,103,29,1034,103,2014-10-01T07:25:00,4,28102658,195711
OK,144,21,1034,144,2014-10-01T07:30:00,1,28103086,195711
OK,89,34,1034,89,2014-10-01T07:35:00,1,28103532,195711
OK,61,50,1034,61,2014-10-01T07:40:00,3,28103977,195711
OK,61,50,1034,61,2014-10-01T07:45:00,3,28104422,195711
OK,71,43,1034,71,2014-10-01T07:50:00,3,28104863,195711
OK,71,43,1034,71,2014-10-01T07:55:00,5,28105308,195711
OK,69,44,1034,69,2014-10-01T08:00:00,7,28105748,195711
OK,58,52,1034,58,2014-10-01T08:05:00,5,28106197,195711
OK,51,59,1034,51,2014-10-01T08:10:00,3,28106634,195711
OK,54,56,1034,54,2014-10-01T08:15:00,4,28107040,195711
OK,62,49,1034,62,2014-10-01T08:20:00,1,28107472,195711
OK,62,49,1034,62,2014-10-01T08:25:00,1,28107921,195711
OK,73,41,1034,73,2014-10-01T08:30:00,4,28108360,195711
OK,59,51,1034,59,2014-10-01T08:35:00,7,28108809,195711
OK,74,41,1034,74,2014-10-01T08:40:00,4,28109237,195711
OK,132,23,1034,132,2014-10-01T08:45:00,3,28109686,195711
OK,151,20,1034,151,2014-10-01T08:50:00,1,28110029,195711
OK,151,20,1034,151,2014-10-01T08:55:00,0,28110478,195711
OK,82,37,1034,82,2014-10-01T09:00:00,1,28110901,195711
OK,79,38,1034,79,2014-10-01T09:05:00,3,28111350,195711
OK,78,39,1034,78,2014-10-01T09:10:00,2,28111779,195711
OK,34,89,1034,34,2014-10-01T09:15:00,3,28112228,195711
OK,78,39,1034,78,2014-10-01T09:20:00,9,28112569,195711
OK,51,59,1034,51,2014-10-01T09:30:00,7,28113442,195711
OK,53,57,1034,53,2014-10-01T09:35:00,5,28113891,195711
OK,70,43,1034,70,2014-10-01T09:40:00,2,28114323,195711
OK,52,58,1034,52,2014-10-01T09:45:00,2,28114772,195711
OK,58,52,1034,58,2014-10-01T09:50:00,2,28115126,195711
OK,76,40,1034,76,2014-10-01T10:00:00,4,28115987,195711
OK,57,53,1034,57,2014-10-01T10:05:00,3,28116436,195711
OK,44,69,1034,44,2014-10-01T10:10:00,2,28116844,195711
OK,68,44,1034,68,2014-10-01T10:15:00,2,28117293,195711
OK,64,47,1034,64,2014-10-01T10:20:00,5,28117718,195711
OK,61,50,1034,61,2014-10-01T10:25:00,4,28118167,195711
OK,75,40,1034,75,2014-10-01T10:30:00,3,28118612,195711
OK,75,40,1034,75,2014-10-01T10:35:00,3,28119059,195711
OK,61,50,1034,61,2014-10-01T10:40:00,4,28119503,195711
OK,56,54,1034,56,2014-10-01T10:45:00,5,28119951,195711
OK,88,34,1034,88,2014-10-01T10:50:00,3,28120399,195711
OK,88,34,1034,88,2014-10-01T10:55:00,0,28120848,195711
OK,92,33,1034,92,2014-10-01T11:00:00,2,28121231,195711
OK,74,41,1034,74,2014-10-01T11:05:00,3,28121680,195711
OK,89,34,1034,89,2014-10-01T11:10:00,2,28122118,195711
OK,55,55,1034,55,2014-10-01T11:15:00,2,28122567,195711
OK,69,44,1034,69,2014-10-01T11:20:00,5,28123008,195711
OK,78,39,1034,78,2014-10-01T11:25:00,2,28123457,195711
OK,37,82,1034,37,2014-10-01T11:30:00,3,28123889,195711
OK,36,84,1034,36,2014-10-01T11:35:00,2,28124338,195711
OK,93,32,1034,93,2014-10-01T11:40:00,3,28124740,195711
OK,93,32,1034,93,2014-10-01T11:45:00,4,28125189,195711
OK,116,26,1034,116,2014-10-01T11:50:00,2,28125618,195711
OK,110,27,1034,110,2014-10-01T11:55:00,2,28126067,195711
OK,74,41,1034,74,2014-10-01T12:00:00,1,28126419,195711
OK,48,63,1034,48,2014-10-01T12:10:00,5,28127317,195711
OK,78,39,1034,78,2014-10-01T12:15:00,2,28127766,195711
OK,66,46,1034,66,2014-10-01T12:20:00,4,28128194,195711
OK,71,43,1034,71,2014-10-01T12:25:00,4,28128643,195711
OK,110,27,1034,110,2014-10-01T12:30:00,0,28129078,195711
OK,75,40,1034,75,2014-10-01T12:35:00,2,28129527,195711
OK,79,38,1034,79,2014-10-01T12:40:00,4,28129961,195711
OK,84,36,1034,84,2014-10-01T12:45:00,3,28130410,195711
OK,59,51,1034,59,2014-10-01T12:50:00,2,28130838,195711
OK,45,67,1034,45,2014-10-01T12:55:00,2,28131287,195711
OK,52,58,1034,52,2014-10-01T13:00:00,2,28131724,195711
OK,50,61,1034,50,2014-10-01T13:05:00,3,28132173,195711
OK,60,50,1034,60,2014-10-01T13:10:00,3,28132611,195711
OK,84,36,1034,84,2014-10-01T13:15:00,2,28133058,195711
OK,81,37,1034,81,2014-10-01T13:20:00,2,28133496,195711
OK,105,29,1034,105,2014-10-01T13:25:00,3,28133945,195711
OK,107,28,1034,107,2014-10-01T13:30:00,2,28134384,195711
OK,72,42,1034,72,2014-10-01T13:35:00,2,28134833,195711
OK,72,42,1034,72,2014-10-01T13:40:00,4,28135252,195711
OK,85,35,1034,85,2014-10-01T13:45:00,3,28135701,195711
OK,85,35,1034,85,2014-10-01T13:50:00,1,28136138,195711
OK,85,35,1034,85,2014-10-01T13:55:00,0,28136587,195711
OK,64,47,1034,64,2014-10-01T14:00:00,1,28137027,195711
OK,64,47,1034,64,2014-10-01T14:05:00,1,28137476,195711
OK,64,47,1034,64,2014-10-01T14:10:00,0,28137910,195711
OK,64,47,1034,64,2014-10-01T14:15:00,0,28138359,195711
OK,54,56,1034,54,2014-10-01T14:20:00,1,28138787,195711
OK,54,56,1034,54,2014-10-01T14:25:00,1,28139236,195711
OK,80,38,1034,80,2014-10-01T14:30:00,1,28139647,195711
OK,53,57,1034,53,2014-10-01T14:35:00,1,28140096,195711
OK,53,57,1034,53,2014-10-01T14:40:00,3,28140538,195711
OK,66,46,1034,66,2014-10-01T14:45:00,5,28140987,195711
OK,66,46,1034,66,2014-10-01T14:50:00,3,28141413,195711
OK,112,27,1034,112,2014-10-01T14:55:00,4,28141862,195711
OK,103,29,1034,103,2014-10-01T15:00:00,5,28142290,195711
OK,87,35,1034,87,2014-10-01T15:05:00,1,28142739,195711
OK,132,23,1034,132,2014-10-01T15:10:00,3,28143166,195711
OK,132,23,1034,132,2014-10-01T15:15:00,3,28143615,195711
OK,138,22,1034,138,2014-10-01T15:20:00,0,28144063,195711
OK,64,47,1034,64,2014-10-01T15:25:00,2,28144512,195711
OK,64,47,1034,64,2014-10-01T15:30:00,2,28144933,195711
OK,42,72,1034,42,2014-10-01T15:35:00,2,28145347,195711
OK,42,72,1034,42,2014-10-01T15:40:00,2,28145796,195711
OK,46,66,1034,46,2014-10-01T15:45:00,0,28146245,195711
OK,46,66,1034,46,2014-10-01T15:50:00,0,28146694,195711
OK,84,36,1034,84,2014-10-01T15:55:00,1,28147102,195711
OK,76,40,1034,76,2014-10-01T16:00:00,2,28147546,195711
OK,72,42,1034,72,2014-10-01T16:05:00,4,28147995,195711
OK,80,38,1034,80,2014-10-01T16:10:00,4,28148396,195711
OK,60,50,1034,60,2014-10-01T16:20:00,6,28149284,195711
OK,58,52,1034,58,2014-10-01T16:25:00,3,28149733,195711
OK,67,45,1034,67,2014-10-01T16:30:00,6,28150159,195711
OK,58,52,1034,58,2014-10-01T16:35:00,5,28150608,195711
OK,93,32,1034,93,2014-10-01T16:40:00,1,28151026,195711
OK,93,32,1034,93,2014-10-01T16:45:00,1,28151475,195711
OK,81,37,1034,81,2014-10-01T16:50:00,2,28151924,195711
OK,107,28,1034,107,2014-10-01T17:00:00,0,28152373,195711
OK,53,57,1034,53,2014-10-01T17:05:00,1,28152819,195711
OK,53,57,1034,53,2014-10-01T17:10:00,0,28153266,195711
OK,53,57,1034,53,2014-10-01T17:15:00,0,28153715,195711
OK,34,89,1034,34,2014-10-01T17:20:00,1,28154125,195711
OK,34,89,1034,34,2014-10-01T17:25:00,1,28154574,195711
OK,34,89,1034,34,2014-10-01T17:30:00,0,28155016,195711
OK,61,50,1034,61,2014-10-01T17:35:00,1,28155464,195711
OK,61,50,1034,61,2014-10-01T17:40:00,0,28155882,195711
OK,61,50,1034,61,2014-10-01T17:45:00,0,28156331,195711
OK,61,50,1034,61,2014-10-01T17:50:00,0,28156779,195711
OK,61,50,1034,61,2014-10-01T17:55:00,0,28157218,195711
OK,61,50,1034,61,2014-10-01T18:00:00,0,28157648,195711
OK,97,31,1034,97,2014-10-01T18:05:00,1,28158096,195711
OK,109,28,1034,109,2014-10-01T18:10:00,2,28158540,195711
OK,96,31,1034,96,2014-10-01T18:15:00,2,28158986,195711
OK,96,31,1034,96,2014-10-01T18:20:00,2,28159432,195711
OK,74,41,1034,74,2014-10-01T18:25:00,1,28159767,195711
OK,39,78,1034,39,2014-10-01T18:30:00,1,28160216,195711
OK,39,78,1034,39,2014-10-01T18:35:00,1,28160665,195711
OK,39,78,1034,39,2014-10-01T18:40:00,0,28161103,195711
OK,39,78,1034,39,2014-10-01T18:45:00,0,28161552,195711
OK,39,78,1034,39,2014-10-01T18:50:00,0,28161969,195711
OK,55,55,1034,55,2014-10-01T18:55:00,1,28162418,195711
OK,55,55,1034,55,2014-10-01T19:00:00,1,28162812,195711
OK,58,52,1034,58,2014-10-01T19:05:00,1,28163251,195711
OK,58,52,1034,58,2014-10-01T19:10:00,1,28163699,195711
OK,58,52,1034,58,2014-10-01T19:15:00,1,28164148,195711
OK,58,52,1034,58,2014-10-01T19:20:00,1,28164579,195711
OK,96,31,1034,96,2014-10-01T19:25:00,2,28165028,195711
OK,96,31,1034,96,2014-10-01T19:30:00,2,28165453,195711
OK,59,51,1034,59,2014-10-01T19:35:00,1,28165901,195711
OK,64,47,1034,64,2014-10-01T19:40:00,1,28166342,195711
OK,64,47,1034,64,2014-10-01T19:45:00,1,28166704,195711
OK,28,109,1034,28,2014-10-01T19:50:00,1,28167153,195711
OK,64,47,1034,64,2014-10-01T19:55:00,0,28167582,195711
OK,64,47,1034,64,2014-10-01T20:00:00,0,28168015,195711
OK,64,47,1034,64,2014-10-01T20:05:00,0,28168464,195711
OK,64,47,1034,64,2014-10-01T20:10:00,0,28168909,195711
OK,64,47,1034,64,2014-10-01T20:15:00,0,28169358,195711
OK,64,47,1034,64,2014-10-01T20:20:00,0,28169806,195711
OK,52,58,1034,52,2014-10-01T20:25:00,1,28170232,195711
OK,52,58,1034,52,2014-10-01T20:30:00,0,28170677,195711
OK,52,58,1034,52,2014-10-01T20:35:00,0,28171125,195711
OK,52,58,1034,52,2014-10-01T20:40:00,0,28171562,195711
OK,52,58,1034,52,2014-10-01T20:45:00,0,28172008,195711
OK,52,58,1034,52,2014-10-01T20:50:00,0,28172456,195711
OK,52,58,1034,52,2014-10-01T20:55:00,0,28172902,195711
OK,52,58,1034,52,2014-10-01T21:00:00,0,28173348,195711
OK,70,43,1034,70,2014-10-01T21:05:00,1,28173797,195711
OK,70,43,1034,70,2014-10-01T21:10:00,1,28174238,195711
OK,70,43,1034,70,2014-10-01T21:15:00,0,28174687,195711
OK,70,43,1034,70,2014-10-01T21:20:00,0,28175113,195711
OK,70,43,1034,70,2014-10-01T21:25:00,0,28175509,195711
OK,70,43,1034,70,2014-10-01T21:30:00,0,28175958,195711
OK,70,43,1034,70,2014-10-01T21:35:00,0,28176407,195711
OK,70,43,1034,70,2014-10-01T21:40:00,0,28176856,195711
OK,70,43,1034,70,2014-10-01T21:45:00,0,28177212,195711
OK,70,43,1034,70,2014-10-01T21:50:00,0,28177652,195711
OK,70,43,1034,70,2014-10-01T21:55:00,0,28178098,195711
OK,70,43,1034,70,2014-10-01T22:00:00,0,28178547,195711
OK,70,43,1034,70,2014-10-01T22:05:00,0,28178994,195711
OK,70,43,1034,70,2014-10-01T22:10:00,0,28179428,195711
OK,70,43,1034,70,2014-10-01T22:15:00,0,28179871,195711
OK,70,43,1034,70,2014-10-01T22:20:00,0,28180318,195711
OK,70,43,1034,70,2014-10-01T22:25:00,0,28180716,195711
OK,70,43,1034,70,2014-10-01T22:30:00,0,28181165,195711
OK,70,43,1034,70,2014-10-01T22:35:00,0,28181589,195711
OK,70,43,1034,70,2014-10-01T22:40:00,0,28182037,195711
OK,70,43,1034,70,2014-10-01T22:45:00,0,28182484,195711
OK,70,43,1034,70,2014-10-01T22:50:00,0,28182933,195711
OK,70,43,1034,70,2014-10-01T22:55:00,0,28183350,195711
OK,70,43,1034,70,2014-10-01T23:00:00,0,28183783,195711
OK,70,43,1034,70,2014-10-01T23:05:00,0,28184228,195711
OK,70,43,1034,70,2014-10-01T23:10:00,0,28184677,195711
OK,70,43,1034,70,2014-10-01T23:15:00,0,28185112,195711
OK,70,43,1034,70,2014-10-01T23:20:00,0,28185560,195711
OK,70,43,1034,70,2014-10-01T23:25:00,0,28185991,195711
OK,70,43,1034,70,2014-10-01T23:30:00,0,28186383,195711
OK,70,43,1034,70,2014-10-01T23:40:00,0,28187230,195711
OK,70,43,1034,70,2014-10-01T23:55:00,0,28188562,195711
OK,70,43,1034,70,2014-10-02T00:05:00,0,28189447,195711
OK,70,43,1034,70,2014-10-02T00:10:00,0,28189869,195711
OK,70,43,1034,70,2014-10-02T00:15:00,0,28190318,195711
OK,70,43,1034,70,2014-10-02T00:20:00,0,28190671,195711
OK,70,43,1034,70,2014-10-02T00:30:00,0,28191569,195711
OK,70,43,1034,70,2014-10-02T00:35:00,0,28191875,195711
OK,70,43,1034,70,2014-10-02T00:45:00,0,28192757,195711
OK,70,43,1034,70,2014-10-02T00:50:00,0,28193201,195711
OK,70,43,1034,70,2014-10-02T00:55:00,0,28193568,195711
OK,70,43,1034,70,2014-10-02T01:05:00,0,28194466,195711
OK,70,43,1034,70,2014-10-02T01:10:00,0,28194915,195711
OK,70,43,1034,70,2014-10-02T01:15:00,0,28195151,195711
OK,70,43,1034,70,2014-10-02T01:25:00,0,28196049,195711
OK,70,43,1034,70,2014-10-02T01:30:00,0,28196333,195711
OK,70,43,1034,70,2014-10-02T01:35:00,0,28196782,195711
OK,70,43,1034,70,2014-10-02T01:40:00,0,28197205,195711
OK,70,43,1034,70,2014-10-02T01:45:00,0,28197654,195711
OK,70,43,1034,70,2014-10-02T01:50:00,0,28198102,195711
OK,70,43,1034,70,2014-10-02T01:55:00,0,28198550,195711
OK,70,43,1034,70,2014-10-02T02:00:00,0,28198999,195711
OK,70,43,1034,70,2014-10-02T02:05:00,0,28199371,195711
OK,70,43,1034,70,2014-10-02T02:10:00,0,28199813,195711
OK,70,43,1034,70,2014-10-02T02:15:00,0,28200255,195711
OK,70,43,1034,70,2014-10-02T02:20:00,0,28200698,195711
OK,70,43,1034,70,2014-10-02T02:25:00,0,28201147,195711
OK,70,43,1034,70,2014-10-02T02:30:00,0,28201578,195711
OK,70,43,1034,70,2014-10-02T02:45:00,0,28202476,195711
OK,70,43,1034,70,2014-10-02T02:50:00,0,28202918,195711
OK,70,43,1034,70,2014-10-02T02:55:00,0,28203366,195711
OK,70,43,1034,70,2014-10-02T03:00:00,0,28203801,195711
OK,70,43,1034,70,2014-10-02T03:10:00,0,28204250,195711
OK,60,50,1034,60,2014-10-02T03:25:00,2,28204699,195711
OK,60,50,1034,60,2014-10-02T03:30:00,0,28205148,195711
OK,35,87,1034,35,2014-10-02T03:35:00,0,28205576,195711
OK,35,87,1034,35,2014-10-02T03:40:00,0,28206023,195711
OK,35,87,1034,35,2014-10-02T03:45:00,0,28206406,195711
OK,35,87,1034,35,2014-10-02T03:55:00,0,28207304,195711
OK,30,101,1034,30,2014-10-02T04:00:00,1,28207723,195711
OK,30,101,1034,30,2014-10-02T04:05:00,0,28208172,195711
OK,57,53,1034,57,2014-10-02T04:10:00,1,28208599,195711
OK,57,53,1034,57,2014-10-02T04:15:00,0,28209048,195711
OK,48,63,1034,48,2014-10-02T04:20:00,2,28209486,195711
OK,63,48,1034,63,2014-10-02T04:25:00,0,28209935,195711
OK,86,35,1034,86,2014-10-02T04:30:00,1,28210358,195711
OK,86,35,1034,86,2014-10-02T04:35:00,0,28210807,195711
OK,167,18,1034,167,2014-10-02T04:40:00,1,28211232,195711
OK,167,18,1034,167,2014-10-02T04:45:00,1,28211676,195711
OK,167,18,1034,167,2014-10-02T04:50:00,0,28212054,195711
OK,63,48,1034,63,2014-10-02T05:00:00,0,28212932,195711
OK,52,58,1034,52,2014-10-02T05:05:00,2,28213381,195711
OK,64,47,1034,64,2014-10-02T05:10:00,1,28213819,195711
OK,34,89,1034,34,2014-10-02T05:15:00,1,28214268,195711
OK,34,89,1034,34,2014-10-02T05:20:00,0,28214681,195711
OK,52,58,1034,52,2014-10-02T05:25:00,1,28215130,195711
OK,52,58,1034,52,2014-10-02T05:30:00,0,28215546,195711
OK,52,58,1034,52,2014-10-02T05:35:00,0,28215995,195711
OK,79,38,1034,79,2014-10-02T05:40:00,2,28216334,195711
OK,107,28,1034,107,2014-10-02T05:45:00,0,28216774,195711
OK,107,28,1034,107,2014-10-02T05:50:00,0,28217221,195711
OK,73,41,1034,73,2014-10-02T05:55:00,4,28217670,195711
OK,61,50,1034,61,2014-10-02T06:00:00,2,28218109,195711
OK,44,69,1034,44,2014-10-02T06:05:00,3,28218558,195711
OK,44,69,1034,44,2014-10-02T06:10:00,1,28218978,195711
OK,91,33,1034,91,2014-10-02T06:15:00,3,28219427,195711
OK,34,89,1034,34,2014-10-02T06:20:00,3,28219800,195711
OK,43,71,1034,43,2014-10-02T06:30:00,3,28220683,195711
OK,62,49,1034,62,2014-10-02T06:35:00,3,28221132,195711
OK,63,48,1034,63,2014-10-02T06:40:00,6,28221513,195711
OK,89,34,1034,89,2014-10-02T06:45:00,3,28221799,195711
OK,73,41,1034,73,2014-10-02T07:00:00,4,28222393,195711
OK,49,62,1034,49,2014-10-02T07:10:00,3,28223273,195711
OK,42,72,1034,42,2014-10-02T07:15:00,2,28223708,195711
OK,49,62,1034,49,2014-10-02T07:20:00,0,28224156,195711
OK,53,57,1034,53,2014-10-02T07:25:00,3,28224511,195711
OK,54,56,1034,54,2014-10-02T07:35:00,7,28225409,195711
OK,50,61,1034,50,2014-10-02T07:40:00,2,28225731,195711
OK,61,50,1034,61,2014-10-02T07:50:00,3,28226621,195711
OK,61,50,1034,61,2014-10-02T07:55:00,5,28227070,195711
OK,58,52,1034,58,2014-10-02T08:00:00,2,28227485,195711
OK,40,76,1034,40,2014-10-02T08:05:00,2,28227934,195711
OK,34,89,1034,34,2014-10-02T08:10:00,1,28228293,195711
OK,56,54,1034,56,2014-10-02T08:20:00,1,28229152,195711
OK,56,54,1034,56,2014-10-02T08:25:00,2,28229601,195711
OK,70,43,1034,70,2014-10-02T08:30:00,1,28229951,195711
OK,80,38,1034,80,2014-10-02T08:40:00,1,28230766,195711
OK,80,38,1034,80,2014-10-02T08:45:00,0,28231214,195711
OK,113,27,1034,113,2014-10-02T08:50:00,2,28231638,195711
OK,84,36,1034,84,2014-10-02T08:55:00,1,28232087,195711
OK,76,40,1034,76,2014-10-02T09:00:00,5,28232429,195711
OK,70,43,1034,70,2014-10-02T09:10:00,0,28232878,195711
OK,38,80,1034,38,2014-10-02T09:15:00,0,28233327,195711
OK,38,80,1034,38,2014-10-02T09:20:00,0,28233751,195711
OK,88,34,1034,88,2014-10-02T09:25:00,3,28234200,195711
OK,99,30,1034,99,2014-10-02T09:30:00,1,28234533,195711
OK,81,37,1034,81,2014-10-02T09:40:00,2,28235409,195711
OK,48,63,1034,48,2014-10-02T09:45:00,3,28235858,195711
OK,48,63,1034,48,2014-10-02T09:50:00,3,28236301,195711
OK,80,38,1034,80,2014-10-02T09:55:00,1,28236748,195711
OK,80,38,1034,80,2014-10-02T10:00:00,0,28237151,195711
OK,80,38,1034,80,2014-10-02T10:05:00,0,28237598,195711
OK,80,38,1034,80,2014-10-02T10:10:00,0,28238047,195711
OK,80,38,1034,80,2014-10-02T10:15:00,0,28238494,195711
OK,57,53,1034,57,2014-10-02T10:20:00,2,28238935,195711
OK,52,58,1034,52,2014-10-02T10:25:00,1,28239384,195711
OK,52,58,1034,52,2014-10-02T10:30:00,0,28239814,195711
OK,84,36,1034,84,2014-10-02T10:35:00,4,28240263,195711
OK,79,38,1034,79,2014-10-02T10:40:00,3,28240707,195711
OK,81,37,1034,81,2014-10-02T10:45:00,6,28241156,195711
OK,83,36,1034,83,2014-10-02T10:50:00,3,28241588,195711
OK,133,22,1034,133,2014-10-02T10:55:00,1,28242036,195711
OK,133,22,1034,133,2014-10-02T11:00:00,0,28242432,195711
OK,133,22,1034,133,2014-10-02T11:05:00,0,28242881,195711
OK,79,38,1034,79,2014-10-02T11:10:00,5,28243330,195711
OK,79,38,1034,79,2014-10-02T11:15:00,2,28243655,195711
OK,36,84,1034,36,2014-10-02T11:20:00,2,28244093,195711
OK,39,78,1034,39,2014-10-02T11:25:00,1,28244522,195711
OK,39,78,1034,39,2014-10-02T11:30:00,0,28244971,195711
OK,100,30,1034,100,2014-10-02T11:35:00,3,28245420,195711
OK,66,46,1034,66,2014-10-02T11:40:00,1,28245826,195711
OK,66,46,1034,66,2014-10-02T11:45:00,0,28246275,195711
OK,38,80,1034,38,2014-10-02T11:50:00,2,28246712,195711
OK,30,101,1034,30,2014-10-02T11:55:00,1,28247161,195711
OK,30,101,1034,30,2014-10-02T12:00:00,0,28247607,195711
OK,30,101,1034,30,2014-10-02T12:05:00,0,28248037,195711
OK,30,101,1034,30,2014-10-02T12:10:00,0,28248486,195711
OK,80,38,1034,80,2014-10-02T12:15:00,6,28248933,195711
OK,102,29,1034,102,2014-10-02T12:20:00,4,28249361,195711
OK,67,45,1034,67,2014-10-02T12:25:00,3,28249805,195711
OK,40,76,1034,40,2014-10-02T12:30:00,1,28250224,195711
OK,75,40,1034,75,2014-10-02T12:35:00,2,28250622,195711
OK,117,26,1034,117,2014-10-02T13:20:00,1,28251947,195711
OK,118,25,1034,118,2014-10-02T13:30:00,1,28252531,195711
OK,118,25,1034,118,2014-10-02T13:35:00,1,28252973,195711
OK,118,25,1034,118,2014-10-02T13:40:00,0,28253390,195711
OK,76,40,1034,76,2014-10-02T13:50:00,2,28254244,195711
OK,102,29,1034,102,2014-10-02T13:55:00,3,28254565,195711
OK,60,50,1034,60,2014-10-02T14:10:00,1,28255142,195711
OK,63,48,1034,63,2014-10-02T14:15:00,4,28255591,195711
OK,60,50,1034,60,2014-10-02T14:20:00,2,28256019,195711
OK,28,109,1034,28,2014-10-02T14:25:00,0,28256468,195711
OK,107,28,1034,107,2014-10-02T14:30:00,3,28256896,195711
OK,88,34,1034,88,2014-10-02T14:35:00,2,28257345,195711
OK,65,47,1034,65,2014-10-02T14:40:00,1,28257786,195711
OK,102,29,1034,102,2014-10-02T14:45:00,4,28258234,195711
OK,102,29,1034,102,2014-10-02T14:50:00,4,28258667,195711
OK,158,19,1034,158,2014-10-02T14:55:00,1,28259113,195711
OK,158,19,1034,158,2014-10-02T15:00:00,0,28259562,195711
OK,126,24,1034,126,2014-10-02T15:05:00,3,28260009,195711
OK,109,28,1034,109,2014-10-02T15:10:00,3,28260442,195711
OK,109,28,1034,109,2014-10-02T15:15:00,1,28260891,195711
OK,109,28,1034,109,2014-10-02T15:20:00,0,28261331,195711
OK,62,49,1034,62,2014-10-02T15:25:00,2,28261713,195711
OK,59,51,1034,59,2014-10-02T15:30:00,0,28262143,195711
OK,63,48,1034,63,2014-10-02T15:40:00,1,28263036,195711
OK,74,41,1034,74,2014-10-02T15:45:00,3,28263474,195711
OK,76,40,1034,76,2014-10-02T15:50:00,2,28263915,195711
OK,76,40,1034,76,2014-10-02T15:55:00,0,28264317,195711
OK,53,57,1034,53,2014-10-02T16:00:00,1,28264766,195711
OK,65,47,1034,65,2014-10-02T16:05:00,2,28265204,195711
OK,46,66,1034,46,2014-10-02T16:10:00,5,28265644,195711
OK,52,58,1034,52,2014-10-02T16:15:00,2,28266040,195711
OK,81,37,1034,81,2014-10-02T16:20:00,3,28266489,195711
OK,60,50,1034,60,2014-10-02T16:25:00,3,28266938,195711
OK,79,38,1034,79,2014-10-02T16:30:00,3,28267261,195711
OK,99,30,1034,99,2014-10-02T16:40:00,0,28268159,195711
OK,43,71,1034,43,2014-10-02T16:45:00,3,28268601,195711
OK,29,105,1034,29,2014-10-02T16:50:00,1,28269050,195711
OK,88,34,1034,88,2014-10-02T16:55:00,1,28269499,195711